www.pogodaiklimat.ru
ПОГОДА в Аэропорту Cheddi Jagan

Архив погоды в Аэропорту Cheddi Jagan (Гайана)

Время
(UTC), дата
00 5.08
03 5.08
06 5.08
09 5.08
12 5.08
15 5.08
18 5.08
21 5.08
00 6.08
03 6.08
06 6.08
09 6.08
12 6.08
15 6.08
18 6.08
21 6.08
00 7.08
03 7.08
06 7.08
09 7.08
12 7.08
15 7.08
18 7.08
21 7.08
00 8.08
03 8.08
06 8.08
09 8.08
12 8.08
15 8.08
18 8.08
21 8.08
00 9.08
03 9.08
06 9.08
09 9.08
12 9.08
15 9.08
18 9.08
21 9.08
00 10.08
03 10.08
06 10.08
09 10.08
12 10.08
15 10.08
18 10.08
21 10.08
00 11.08
03 11.08
06 11.08
09 11.08
12 11.08
15 11.08
18 11.08
21 11.08
Ветер
(напр.,м/с)
Видим. Явления Облачность Т
(С)
Тd
(С)
f
(%)
Тe
(С)
Тes
(С)
Комфортность P
(гПа)
Po
(гПа)
Тmin
(С)
Tmax
(С)
R
(мм)
R24
(мм)
S
(см)
нст 1 10 км мгла {гроза, ливн. дождь} 5/4 420 м
[Cu Sc Ac cuf Ci sp]
+25.2 +24.7 97 +35 +35 очень
душно
1011.7 1011.6 +29.7 13
нст 1 700 м дымка 8/5 150 м
[Cu Sc Ci sp]
+24.2 +24.1 99 +33 +33 очень
душно
1012.8 1012.7
нст 1 10 км дымка 5/4 150 м
[Cu Sc Ci sp]
+24.1 +24.0 99 +33 +33 очень
душно
1011.3 1011.2
нст 1 800 м туман 9/9 60 м
[Frnb]
+23.4 +23.4 100 +33 +33 очень
душно
1011.2 1011.1
нст 1 10 км в посл. час туман 5/5 360 м
[Cu med, cong]
+24.7 +24.6 99 +35 +38 очень
душно
1012.6 1012.5 +22.4 22.1
С 3 10 км слаб. ливневой дождь 8/8 540 м
[Cu med, cong]
+27.4 +25.1 87 +39 +43 очень
душно
1012.4 1012.3
В 6 13 км мгла {ливн. дождь} 8/5 600 м
[Cb cap Ci ing]
+31.9 +23.6 62 +43 +46 опасность
перегрева
1010.1 1010.0 2
СВ 8 13 км 4/3 600 м
[Cb cap Ci ing]
+30.4 +23.9 68 +42 +42 опасность
перегрева
1009.8 1009.7
нст 1 10 км мгла 4/1 540 м
[Cu Sc Ci sp]
+26.4 +24.6 90 +37 +37 очень
душно
1010.4 1010.3 +32.0
нст 1 10 км мгла 4/1 480 м
[Cu Sc Ci sp]
+24.9 +24.5 98 +35 +35 очень
душно
1011.3 1011.2
нст 9 400 м дымка ?/? +24.4 +24.1 98 +34 +34 очень
душно
1010.4 1010.3
нст 1 10 км мгла 5/3 480 м
[Cu Sc Ci sp]
+23.5 +23.2 98 +31 +31 очень
душно
1010.5 1010.4
С 2 13 км мгла 3/3 480 м
[Cu Sc Ac trans Ci sp]
+26.4 +25.2 93 +38 +42 очень
душно
1012.4 1012.3 +22.5 1.8
СВ 3 14 км мгла 5/5 630 м
[Cu med, cong Ci fib]
+32.0 +23.6 61 +43 +52 опасность
перегрева
1012.1 1012.0
В 5 14 км гроза без осадков {ливн. дождь} 5/5 600 м
[Cb cap Ac cuf Ci ing]
+31.0 +24.2 67 +43 +47 опасность
перегрева
1009.6 1009.5
нст 1 10 км мгла {гроза, ливн. дождь} 9/4 480 м
[Cb cap Ac As Cs]
+26.6 +25.0 91 +38 +39 очень
душно
1010.4 1010.3
СВ 2 12 км мгла 8/6 600 м
[Cu Sc Ac As Ci sp]
+26.2 +24.6 91 +37 +37 очень
душно
1010.7 1010.6 +34.2 0.2
СВ 2 10 км мгла 6/4 600 м
[Cu med, cong Ci sp]
+25.2 +24.4 95 +35 +35 очень
душно
1012.4 1012.3
СВ 2 10 км мгла 6/4 600 м
[Cu med, cong Ci sp]
+24.8 +24.0 95 +34 +34 очень
душно
1011.3 1011.2
В 2 9000 м дымка 9/6 570 м
[Cu Sc Ac As Ci sp]
+23.0 +23.0 100 +32 +32 очень
душно
1011.4 1011.3
В 2 12 км мгла 8/5 630 м
[Cu Sc Ac As Ci sp]
+26.3 +25.4 95 +38 +41 очень
душно
1013.0 1012.9 +22.6 0.2
В 2 13 км мгла {ливн. дождь} 6/6 720 м
[Cu med, cong]
+31.8 +24.4 65 +44 +52 опасность
перегрева
1012.8 1012.7
ЮВ 5 13 км мгла {ливн. дождь} 8/6 600 м
[Cb cap Ci sp]
+31.8 +23.9 63 +43 +46 опасность
перегрева
1009.9 1009.8 5
В 4 13 км мгла 4/4 660 м
[Sc diur, vesp Ci fib]
+30.2 +24.0 69 +42 +42 опасность
перегрева
1009.5 1009.4
В 2 10 км мгла 3/1 600 м
[Cu med, cong Ac cuf Ci sp]
+26.7 +24.3 87 +37 +37 очень
душно
1011.2 1011.1 +33.6
нст 1 10 км мгла 3/1 500 м
[Cu med, cong Ac cuf Ci sp]
+25.5 +24.1 92 +35 +35 очень
душно
1012.3 1012.2
нст 1 10 км мгла 3/1 500 м
[Cu med, cong Ac cuf Ci sp]
+24.4 +23.8 96 +33 +33 очень
душно
1010.7 1010.6
СЗ 2 10 км мгла 3/1 500 м
[Cb calv Ac cuf Ci sp]
+23.6 +23.3 98 +32 +32 очень
душно
1010.6 1010.5
нст 1 10 км мгла 1/1 500 м
[Cu med, cong Ac cuf]
+27.8 +25.3 86 +40 +47 очень
душно
1012.4 1012.3 +22.4 4.6
ЮЗ 2 13 км мгла 8/6 630 м
[Cu Sc Ac As Ci sp]
+32.5 +24.4 62 +45 +51 опасность
перегрева
1012.4 1012.3
З 4 12 км гроза без осадков {ливн. дождь} 8/6 540 м
[Cb cap Ac As Ci ing]
+28.7 +25.0 80 +41 +44 опасность
перегрева
1009.8 1009.7 0.3
З 2 13 км мгла {гроза, ливн. дождь} 8/5 600 м
[Cb cap Ac As Ci ing]
+27.3 +24.4 84 +38 +39 очень
душно
1009.4 1009.3 1
СВ 3 12 км мгла {гроза, ливн. дождь} 6/4 600 м
[Cu Sc Ac As Ci sp]
+26.5 +25.2 93 +38 +38 очень
душно
1010.7 1010.6 +33.3 0.8
СВ 2 11 км мгла 6/4 600 м
[Cu med, cong Ci sp]
+25.0 +24.4 96 +35 +35 очень
душно
1011.7 1011.6
З 2 9000 м дымка 6/3 570 м
[Cu med, cong Ci sp]
+24.0 +24.0 100 +33 +33 очень
душно
1010.2 1010.1
ЮЗ 2 9000 м дымка 6/3 570 м
[Cu med, cong Ci sp]
+23.4 +23.3 99 +33 +33 очень
душно
1011.2 1011.1
нст 1 10 км мгла 1/1 540 м
[Cu med, cong Ci fib]
+28.5 +25.6 84 +42 +49 опасность
перегрева
1013.2 1013.1 +22.7 1.1
В 4 12 км мгла 8/8 660 м
[Cu med, cong]
+32.2 +23.7 61 +44 +46 опасность
перегрева
1013.6 1013.5
СЗ 5 10 км гроза без осадков {ливн. дождь} 6/4 450 м
[Cb cap Ac cuf Ci ing]
+26.7 +24.6 88 +38 +42 очень
душно
1011.2 1011.1
нст 1 10 км в посл. час гроза {ливн. дождь} 8/1 480 м
[Cb cap Ac cuf Ci ing]
+28.6 +24.8 80 +41 +42 опасность
перегрева
1011.0 1010.9
Ю 3 11 км зарница {гроза, ливн. дождь} 8/5 500 м
[Cb cap Ac As Ci ing]
+26.7 +24.9 90 +38 +38 очень
душно
1013.0 1012.9 +33.4
В 2 10 км мгла 6/4 570 м
[Cu med, cong Ci sp]
+24.7 +24.3 98 +34 +34 очень
душно
1013.8 1013.7
В 2 10 км мгла 6/4 570 м
[Cu med, cong Ci sp]
+24.0 +23.7 98 +33 +33 очень
душно
1012.5 1012.4
Ю 2 9000 м дымка 6/4 540 м
[Cu med, cong Ci sp]
+23.8 +23.5 98 +32 +32 очень
душно
1012.8 1012.7
В 4 13 км мгла 5/3 600 м
[Cu med, cong Ac trans Ci fib]
+27.8 +25.9 89 +41 +44 опасность
перегрева
1015.1 1015.0 +22.9 2.8
В 2 13 км мгла 8/8 720 м
[Cu med, cong Ac cuf Ci fib]
+31.7 +25.6 70 +46 +50 опасность
перегрева
1014.3 1014.2
СЗ 3 8000 м гроза без осадков {ливн. дождь} 9/9 480 м
[Cb cap Ac cuf Ci ing]
+25.6 +23.3 87 +34 +36 очень
душно
1013.1 1013.0 6
З 2 12 км гроза без осадков {ливн. дождь} 6/5 480 м
[Cb cap Ac cuf Ci ing]
+23.1 +22.6 97 +32 +32 очень
душно
1012.3 1012.2
нст 1 10 км мгла {гроза} 6/1 480 м
[Cb cap Ac cuf Ci ing]
+24.1 +23.6 97 +33 +33 очень
душно
1013.8 1013.7 +33.5 4
нст 1 5000 м дымка 4/1 500 м
[Cu Sc Ac cuf Ci sp]
+23.4 +23.2 99 +33 +33 очень
душно
1014.7 1014.6
нст 1 3000 м дымка 4/1 180 м
[Cu Sc Ci sp]
+23.0 +22.6 98 +32 +32 очень
душно
1012.9 1012.8
штиль 0 10 км мгла 4/1 450 м
[Cu Sc Ac cuf Ci sp]
+22.5 +22.2 98 +30 +30 очень
душно
1013.0 1012.9
нст 1 11 км мгла {ливн. дождь} 1/1 540 м
[Cu med, cong Ac cuf]
+28.3 +26.0 87 +42 +49 опасность
перегрева
1014.1 1014.0 +22.2 0.2 10.3
Ю 2 8000 м ливневой дождь 8/8 500 м
[Cu Sc Ac cuf Ci sp]
+28.2 +25.5 85 +41 +45 опасность
перегрева
1014.3 1014.2
СЗ 4 13 км мгла {гроза, дождь} 5/5 540 м
[Cb cap Ci ing]
+28.0 +23.9 78 +39 +44 очень
душно
1011.7 1011.6 47
ЮВ 2 12 км мгла 5/5 500 м
[Cb cap Ac trans Ci ing]
+28.5 +24.4 79 +40 +41 очень
душно
1010.9 1010.8
Местоположение метеостанции Аэропорт Cheddi Jagan (Гайана): широта 6.50 долгота -58.25 высота над уровнем моря 29 м.
В архиве по умолчанию представлена погода в Аэропорту Cheddi Jagan за последнюю неделю. Архивные данные за месяц целиком и за предыдущие месяцы, начиная с января 2011 года, Вы можете получить, выбрав интересующий диапазон дат из раскрывающегося списка и нажав кнопку "Найти!".
*Определитесь, кто Вы:
Внимание! Время в таблицах - всемирное. Для получения местного времени необходимо прибавить поправку, которая равна -4 ч.
Смотрите также архив погоды в соседних городах и на ближайших метеорологических станциях:
Партнеры нашего сайта:      
Пояснения к столбцам:
  • Ветер - указаны скорость ветра в м/с - средняя за 10 мин, порывы в срок и между сроками (в фигурных скобках) и направление, откуда дует ветер: С - северный,
  • СВ - северо-восточный, В - восточный, ЮВ - юго-восточный, Ю - южный, ЮЗ - юго-западный, З - западный, СЗ - северо-западный.
  • Видимость - горизонтальная дальность видимости в метрах или километрах. При видимости от 1 до 10 км при отсутствии осадков обычно наблюдается дымка, при ухудшении видимости до 1 км и менее - туман. В сухую погоду видимость может ухудшаться дымом, пылью или мглою.
  • Явления - указаны атмосферные явления, наблюдавшиеся в срок или в последний час перед сроком; фигурными скобками обозначены явления, наблюдавшиеся между сроками (за 1-3 часа до срока); квадратными скобками обозначены град или гололедные отложения с указанием их диаметра в мм.
  • Облачность - указаны через наклонную черту общая и нижняя облачность в баллах и высота нижней границы облаков в метрах; квадратными скобками обозначены формы облаков: Ci - перистые, Cs - перисто-слоистые, Cc - перисто-кучевые, Ac - высококучевые, As - высокослоистые, Sc - слоисто-кучевые, Ns - слоисто-дождевые, Cu - кучевые, Cb - кучево-дождевые. Подробнее классификацию облаков см. в Атласе облаков (PDF).
  • T - Температура воздуха - температура, измеренная на высоте 2 м над землей.
  • Td - Температура точки росы - температура, при понижении до которой содержащийся в воздухе водяной пар достигнет насыщения.
  • f - Относительная влажность воздуха - влажноcть воздуха, измеренная на высоте 2 м над землей.
  • Te - Эффективная температура - температура, которую ощущает одетый по сезону человек в тени. Характеристика душности погоды. При расчете учитывается влияние влажности воздуха и скорости ветра на теплоощущения человека.
  • Tes - Эффективная температура на солнце - температура, которую ощущает человек, с поправкой на солнечный нагрев. Характеристика знойности погоды. Зависит от высоты солнца над горизонтом, облачности и скорости ветра. Ночью, в пасмурную погоду, а также при ветре 12 м/с и более поправка равна нулю.
  • P - Атмосферное давление - приведенное к уровню моря атмосферное давление.
  • Po - Атмосферное давление - измеренное на уровне метеостанции атмосферное давление.
  • Tmin - Минимальная температура - минимум температуры воздуха на высоте 2 м над землей.
  • Tmax - Максимальная температура - максимум температуры воздуха на высоте 2 м над землей.
  • R - Количество осадков - Количество выпавших осадков за период времени, мм. При наведении курсора мыши на число - период времени, за который выпало указанное количество осадков.
  • R24 - Количество осадков - Количество выпавших осадков за 24 часа, мм.
  • S - Снежный покров - Высота снежного покрова, см. При наведении курсора мыши на число - состояние снежного покрова и степень покрытия местности в баллах.